Dewpoint
74 71 68 66 54 48 45 51 55 56 59 62 62 61 61 62 58 57 71 71 72 71 73 74 76 77 76 77 77 77 77 77 77 77 77 76 76 76 75 75 75 75 74 73 73 73 73 73 73
72 68 66 63 46 48 51 54 56 58 60 61 61 60 60 61 66 68 69 72 72 73 73 74 76 77 76 76 77 77 76 76 76 76 76 76 76 76 73 73 73 73 73 74 74 73 74 73 74
66 63 64 59 47 47 52 55 57 59 60 58 61 63 62 62 67 68 71 72 72 72 73 74 76 77 76 76 77 77 76 76 76 76 76 76 76 74 73 75 75 75 74 74 74 73 73 73 73
67 67 64 45 48 51 55 57 58 58 59 60 61 60 65 68 67 69 71 70 70 71 73 74 75 75 76 76 76 76 76 76 76 76 76 75 74 73 74 75 75 74 74 74 73 73 72 72 72
64 59 50 40 45 53 56 58 58 58 59 59 60 61 64 69 70 70 70 69 70 71 72 73 76 76 76 76 76 77 77 76 76 76 76 74 74 73 74 74 73 74 73 73 73 73 73 73 72
55 55 41 42 47 52 56 59 60 60 61 61 60 60 65 69 68 68 68 68 69 71 73 73 75 76 76 75 76 76 76 75 74 75 76 75 75 75 74 74 73 74 74 73 73 73 73 72 72
56 50 45 43 48 51 56 58 58 58 58 59 61 60 66 67 67 67 66 64 67 71 71 71 73 73 75 76 76 76 75 75 75 75 74 75 75 75 73 74 74 73 73 73 74 74 73 73 73
57 51 40 41 46 50 57 58 59 58 59 62 61 60 63 67 67 66 68 69 69 69 70 69 70 71 73 74 76 76 76 74 75 75 74 74 73 73 74 75 75 73 73 73 74 74 74 74 74
56 48 45 47 51 54 57 58 61 61 60 62 61 63 66 67 67 67 67 67 66 67 67 68 69 69 70 69 73 75 74 74 74 74 74 74 73 73 72 73 73 72 72 73 73 73 74 75 74
51 48 46 43 53 56 58 58 59 60 61 61 63 66 67 67 66 65 65 65 64 65 66 67 67 68 66 63 68 70 74 72 71 71 71 71 72 72 74 73 73 73 73 74 74 75 75 75 72
51 43 43 51 54 58 56 55 60 60 59 61 62 63 66 66 65 64 63 64 64 64 65 65 66 66 64 61 64 68 73 72 72 71 71 72 72 71 71 71 71 72 73 73 73 72 72 72 72
45 43 45 50 57 56 56 57 58 58 59 63 64 65 66 65 64 64 63 63 63 63 64 65 65 65 64 63 62 66 71 70 71 71 71 72 71 71 71 72 71 71 72 72 72 72 71 71 70
32 39 46 52 53 56 57 57 56 59 63 64 65 65 64 64 63 64 64 64 64 63 63 64 64 64 64 65 66 65 68 70 70 70 72 70 70 70 72 72 71 71 71 72 72 72 72 71 70
32 43 48 50 52 54 56 57 58 60 64 64 65 65 64 64 65 65 65 66 65 64 63 63 63 64 65 66 66 67 68 70 71 72 70 71 71 70 71 71 70 70 71 72 72 72 72 71 71
43 44 46 49 51 53 56 54 56 61 63 64 64 64 64 64 65 65 66 66 66 64 63 62 63 64 64 66 66 67 68 70 71 72 72 72 71 71 71 71 70 69 70 71 71 70 71 69 70
35 36 42 45 50 52 49 49 57 61 61 62 63 63 64 64 65 65 66 66 67 65 63 62 62 62 64 65 66 66 67 68 69 70 72 72 72 71 71 70 70 71 71 71 69 68 66 67 66
25 36 34 42 47 48 48 49 57 60 61 61 61 62 62 62 63 65 65 66 66 66 65 64 62 61 64 66 66 65 66 69 70 71 72 73 73 72 72 71 71 72 71 70 68 67 65 65 64
24 24 32 40 43 44 46 48 55 58 59 59 59 61 62 62 62 64 65 66 66 66 65 64 62 62 66 67 65 67 69 70 71 72 72 71 71 71 69 69 70 70 71 70 68 67 65 65 65
27 25 24 39 40 44 45 48 52 57 59 58 58 60 60 61 62 63 64 64 65 63 63 62 62 64 67 68 67 67 67 69 71 70 71 70 70 69 68 68 67 69 70 71 70 68 65 64 64
23 22 19 20 38 42 44 46 51 52 53 55 58 59 59 59 61 62 62 63 63 62 61 62 63 64 66 67 69 69 69 70 71 70 70 70 70 70 67 65 66 66 68 69 69 67 64 63 64
15 14 14 17 41 43 43 44 47 50 51 51 57 58 59 59 59 60 61 62 63 62 62 63 64 64 66 68 70 70 71 71 69 68 68 68 70 69 67 64 64 64 66 68 69 68 66 64 66
13 14 16 35 38 37 42 38 44 47 48 49 50 54 57 58 58 59 60 62 62 63 64 64 65 65 66 69 69 70 70 68 69 69 68 67 67 68 64 63 64 64 64 66 69 70 67 64 66
11 21 24 35 26 35 38 33 38 46 46 48 49 50 52 55 57 58 59 61 63 64 64 66 66 67 68 69 69 69 69 69 69 69 68 67 65 64 65 67 67 66 66 67 70 70 70 69 68
14 27 23 21 17 15 33 27 24 43 44 47 49 49 50 52 55 57 59 60 61 64 65 66 67 67 70 70 70 69 70 69 70 70 70 69 67 66 67 67 67 69 69 70 71 70 69 68 68
22 21 19 19 18 17 19 20 25 37 44 46 48 49 50 51 52 54 56 57 59 63 65 66 67 67 69 71 70 70 70 70 70 70 70 70 68 69 70 70 70 71 72 71 71 69 68 66 66
21 19 19 17 17 17 21 18 23 28 42 45 47 49 50 51 51 53 55 56 57 61 64 65 66 66 69 70 71 71 71 72 72 72 71 71 69 70 68 66 66 67 68 67 66 64 64 64 63
21 20 20 20 25 17 20 27 33 38 38 42 45 48 49 50 51 52 54 56 58 60 63 65 66 67 68 70 71 70 70 69 71 71 70 70 70 70 68 65 66 67 66 64 64 63 62 62 62
20 21 18 18 19 17 19 30 32 35 36 44 45 47 49 51 52 53 56 57 59 62 63 64 67 68 70 68 69 69 69 68 68 69 69 69 69 68 68 68 67 67 66 66 65 63 63 63 63
20 21 22 20 20 16 20 28 34 37 37 42 44 44 48 52 52 56 58 60 63 67 68 68 70 71 68 68 68 67 68 68 68 67 68 67 67 68 67 66 67 67 67 66 64 64 64 64 64
20 19 22 22 19 27 27 26 34 38 43 50 55 57 57 52 55 59 61 65 65 65 65 66 67 67 67 67 67 67 66 64 65 65 66 66 65 65 64 65 66 65 66 65 65 64 64 64 63
Lifted_Index
-5 -5 -4 -3 -1 -0 -0 -1 -1 -1 -1 -1 -1 -1 -1 -1 -1 -1 -1 -0 -1 -1 -2 -3 -4 -4 -4 -4 -4 -4 -4 -4 -5 -5 -5 -5 -5 -4 -4 -4 -3 -3 -3 -3 -3 -3 -3 -3 -3
-5 -5 -5 -3 -1 -0 -1 -1 -1 -1 -1 -1 -1 -1 -1 -1 -1 -1 -1 -1 -1 -1 -2 -3 -4 -4 -4 -4 -4 -4 -4 -4 -5 -5 -5 -5 -4 -4 -3 -3 -3 -3 -3 -3 -3 -3 -3 -3 -3
-6 -6 -5 -3 -1 -0 -1 -1 -1 -2 -1 -1 -1 -1 -1 -1 -1 -1 -1 -1 -1 -1 -2 -3 -4 -4 -4 -5 -5 -4 -4 -4 -5 -5 -5 -5 -4 -3 -3 -3 -4 -4 -4 -3 -3 -3 -3 -3 -3
-5 -5 -4 -2 -1 -1 -1 -1 -1 -1 -1 -1 -1 -1 -1 -1 -1 -1 -1 -1 -1 -1 -2 -3 -4 -4 -5 -5 -5 -5 -5 -5 -5 -5 -5 -4 -4 -3 -3 -4 -4 -4 -4 -4 -3 -3 -3 -3 -3
-4 -3 -2 -2 -2 -1 -1 -1 -1 -0 -1 -1 -1 -1 -1 -1 -1 -1 -1 -0 -0 -1 -1 -2 -3 -4 -5 -5 -5 -5 -5 -5 -5 -5 -5 -4 -4 -4 -4 -4 -4 -4 -4 -4 -4 -3 -3 -3 -3
-2 -1 -1 -1 -2 -2 -2 -2 -1 -1 -0 -0 -0 -0 -1 -1 -1 -1 -0 0 0 -1 -1 -2 -3 -4 -4 -5 -5 -5 -5 -5 -5 -5 -5 -5 -5 -4 -4 -4 -4 -4 -4 -4 -4 -4 -4 -4 -3
-1 -0 -0 -1 -2 -2 -2 -2 -1 -1 -0 0 0 -0 -1 -1 -0 -0 -0 0 0 -0 -1 -2 -3 -4 -4 -5 -5 -5 -5 -5 -6 -6 -5 -5 -5 -5 -5 -4 -5 -5 -5 -4 -4 -4 -4 -4 -4
-1 -1 -1 -1 -2 -2 -2 -2 -1 -1 -0 0 0 0 -0 -0 -0 0 0 1 0 0 -0 -1 -2 -3 -4 -5 -5 -5 -5 -5 -6 -6 -6 -5 -5 -5 -5 -5 -5 -5 -4 -4 -4 -4 -4 -4 -4
-1 -0 -0 -1 -2 -2 -2 -2 -1 -1 -0 0 0 -0 -0 -0 0 0 1 1 0 0 0 -0 -1 -2 -3 -4 -4 -4 -4 -5 -5 -5 -5 -5 -5 -5 -5 -5 -5 -5 -4 -4 -4 -4 -4 -4 -4
-0 0 -0 -1 -2 -3 -2 -2 -1 -1 -0 -0 0 -0 -0 0 0 0 1 1 1 1 1 1 -0 -1 -2 -2 -2 -3 -4 -4 -4 -4 -5 -5 -5 -5 -5 -5 -5 -5 -5 -5 -5 -5 -5 -4 -4
-0 0 0 -1 -3 -3 -2 -1 -1 -0 -0 -0 -0 -0 -0 0 0 0 1 1 1 1 2 1 1 1 0 -0 -0 -2 -3 -4 -4 -4 -5 -5 -5 -5 -5 -5 -5 -5 -5 -5 -5 -5 -5 -4 -4
0 0 -0 -2 -3 -3 -2 -1 -0 -0 -0 -0 -1 -0 -0 0 1 1 1 1 1 2 2 2 2 2 1 1 1 -1 -2 -3 -3 -4 -5 -5 -5 -5 -5 -5 -5 -5 -5 -5 -5 -5 -4 -4 -4
0 -0 -1 -2 -3 -3 -2 -1 -0 -1 -1 -1 -1 -1 -0 0 0 1 1 1 1 1 2 2 2 2 2 2 1 0 -1 -2 -3 -4 -4 -5 -5 -4 -4 -5 -5 -5 -5 -5 -5 -5 -4 -4 -4
0 -1 -1 -2 -2 -2 -2 -2 -1 -1 -2 -2 -1 -1 -1 -0 0 0 1 1 0 1 1 2 2 2 2 2 2 1 0 -1 -2 -3 -4 -4 -4 -4 -4 -4 -5 -4 -4 -4 -4 -4 -4 -4 -4
-0 -1 -1 -2 -2 -2 -2 -2 -2 -2 -2 -2 -2 -1 -1 -0 -0 -0 -0 0 0 0 1 1 2 2 2 2 2 2 1 -1 -2 -3 -4 -4 -5 -4 -4 -4 -4 -3 -3 -3 -3 -3 -3 -3 -3
-0 -1 -1 -1 -1 -1 -1 -2 -3 -3 -3 -3 -2 -2 -1 -1 -0 -0 -0 -0 0 0 1 2 2 2 2 2 3 2 1 -0 -2 -3 -4 -5 -5 -5 -5 -4 -4 -4 -3 -3 -3 -2 -1 -0 -1
-0 -0 -0 -0 -1 -0 -1 -1 -2 -3 -3 -3 -2 -2 -1 -1 -1 -1 -1 -0 -0 0 1 2 3 3 3 2 3 2 1 -1 -3 -4 -5 -5 -5 -5 -5 -5 -4 -4 -4 -3 -2 -1 0 1 1
0 0 0 -0 -0 -0 0 -1 -2 -3 -3 -3 -2 -2 -2 -1 -1 -1 -1 -0 -0 0 1 2 3 3 2 2 2 2 0 -1 -3 -4 -5 -5 -5 -5 -4 -4 -4 -4 -4 -3 -2 -1 -1 -0 -0
0 0 0 0 0 0 0 -0 -1 -2 -3 -3 -3 -2 -2 -1 -1 -1 -1 -1 -1 -0 1 1 2 2 1 1 1 0 -1 -2 -3 -4 -4 -4 -4 -4 -3 -3 -3 -3 -3 -3 -3 -3 -3 -2 -1
0 0 0 1 0 0 0 0 -1 -1 -2 -2 -2 -2 -2 -2 -2 -2 -2 -1 -1 -1 -0 0 1 1 0 -1 -1 -1 -2 -3 -4 -4 -4 -3 -3 -3 -3 -2 -1 -1 -2 -3 -4 -5 -4 -3 -2
0 0 0 0 0 0 1 0 0 -0 -1 -1 -2 -2 -2 -2 -2 -2 -2 -2 -2 -1 -1 -1 -1 -1 -1 -2 -3 -3 -3 -4 -4 -4 -4 -3 -3 -3 -2 -1 -0 -1 -2 -3 -5 -5 -4 -3 -3
0 0 0 0 0 0 1 1 1 0 0 -0 -1 -2 -2 -2 -2 -2 -2 -2 -2 -2 -2 -3 -3 -2 -2 -3 -4 -4 -4 -4 -4 -4 -4 -4 -4 -3 -2 -2 -1 -2 -2 -3 -5 -5 -4 -4 -3
1 1 1 0 0 0 1 1 1 1 0 -0 -1 -1 -1 -1 -1 -1 -2 -2 -2 -3 -3 -3 -4 -4 -3 -4 -4 -4 -4 -5 -4 -4 -4 -4 -4 -4 -3 -3 -2 -2 -3 -4 -5 -5 -5 -4 -4
2 1 1 0 0 0 1 1 2 1 1 -0 -1 -1 -1 -1 -0 -1 -1 -1 -2 -3 -3 -4 -4 -4 -4 -4 -4 -4 -5 -5 -5 -5 -5 -5 -5 -4 -4 -4 -3 -3 -3 -4 -5 -5 -5 -4 -4
2 2 1 0 0 -0 0 1 2 2 1 0 -0 -0 -0 -0 -0 -1 -1 -1 -2 -2 -3 -4 -4 -4 -4 -4 -5 -5 -5 -5 -5 -5 -5 -5 -5 -5 -4 -3 -3 -3 -3 -4 -4 -4 -3 -2 -2
3 3 2 1 0 -0 0 1 2 2 1 1 0 0 -0 -0 -1 -1 -1 -1 -1 -2 -3 -4 -4 -4 -4 -5 -5 -5 -5 -6 -6 -5 -5 -5 -5 -5 -4 -2 -1 -2 -2 -3 -3 -2 -1 0 0
3 3 2 1 0 0 0 1 2 2 1 1 1 1 0 -0 -1 -1 -1 -1 -1 -2 -3 -4 -4 -4 -4 -5 -5 -5 -5 -5 -5 -4 -4 -4 -4 -4 -3 -2 -1 -1 -2 -2 -2 -1 0 0 0
3 3 2 1 0 0 0 1 2 2 2 1 1 1 0 -0 -1 -1 -1 -1 -1 -2 -2 -3 -4 -4 -4 -5 -4 -4 -4 -4 -3 -3 -3 -3 -3 -3 -2 -2 -1 -1 -2 -2 -1 -1 -1 -1 -1
3 3 2 1 1 1 0 1 2 2 2 1 1 0 -0 -1 -1 -1 -1 -1 -2 -2 -3 -3 -4 -5 -5 -5 -4 -4 -4 -3 -2 -2 -2 -2 -2 -2 -1 -1 -1 -1 -2 -2 -2 -2 -2 -2 -2
2 2 2 2 2 1 1 1 2 2 2 1 0 -0 -1 -1 -1 -1 -1 -1 -2 -3 -3 -4 -5 -5 -5 -5 -5 -4 -3 -3 -2 -1 -1 -1 -1 -1 -1 -0 -0 -1 -1 -2 -3 -3 -2 -2 -2